Погода в Черной Речке

Россия / Рязанская область     53°51′31″N   40°44′39″E
темп.,
°C
ветер,
м/с
пор.,
м/с
влажн.,
%
обл.,
%
осадки,
мм/ч
давл.,
гПа
погр.,
м
7 марта, вс
вс700:00−13з47920 0.0 1016105
03:00−14зюз47920 0.0 1015104
06:00−13юз5109413 0.0 1014149
09:00−9юз8158856 0.0 1010475
12:00−6юз101693100 0.4 1006906
15:00−4юз121993100 1.6 10011241
18:00−3юз101894100 1.9 9971139
21:00−2зюз111992100 2.5 9941209
8 марта, пн
пн800:00−5з61494100 1.4 996614
03:00−8з7158567 1.4 999414
06:00−10зюз613890 0.0 1000300
09:00−8зюз6119045 0.0 1000402
12:00−5зюз71087100 0.1 1000903
15:00−5з71086100 0.2 10011161
18:00−7зсз5118397 0.3 1003436
21:00−11зсз499049 0.3 1007163
9 марта, вт
вт900:00−13сз34950 0.0 100936
03:00−15зсз349726 0.0 101035
06:00−16сз349699 0.0 101253
09:00−14сз479599 0.0 1013238
12:00−11сз359298 0.0 1014434
15:00−10сз468899 0.1 1015669
18:00−14сз4894100 0.1 1016158
21:00−17сз479788 0.1 1019135
10 марта, ср
ср1000:00−17ссз359896 0.1 1020115
03:00−21сз3410092 0.1 102249
06:00−24сз459980 0.0 102385
09:00−23ссз479768 0.0 1025213
12:00−19сз469260 0.0 1026361
15:00−17сз468846 0.0 1026429
18:00−20сз349522 0.0 102733
21:00−22сз339511 0.0 102921
11 марта, чт
чт1100:00−23зсз22960 0.0 102920
03:00−24з22960 0.0 103020
06:00−24зюз23920 0.0 103020
09:00−20юз34887 0.0 1030106
12:00−15ююз34828 0.0 1030218
15:00−13ююз468727 0.0 1029296
18:00−15ю479262 0.0 1028131
21:00−16ю5109131 0.0 1028160